DW1345 Weather Reports


time (UTC)temp
F
wind
direction
speed
knots
gust
knots
rain 1hr
in
rain 24hr
in
rain mn
in
humidity
%
barometer
mb
20260506170026 37 16 2.6 0.0 0.00 0.00 0.04 87 1008.0
20260506164524 38 61 2.6 0.0 0.00 0.00 0.04 85 1007.9
20260506163025 38 55 1.7 0.0 0.00 0.00 0.02 83 1008.2
20260506161534 39 39 2.6 0.0 0.00 0.00 0.02 81 1007.8
20260506160020 40 360 2.6 0.0 0.00 0.00 0.00 79 1007.6
20260506154518 41 314 4.3 0.0 0.00 0.00 0.00 76 1007.5
20260506153016 42 278 1.7 0.0 0.00 0.00 0.00 76 1007.3
20260506151515 42 273 4.3 0.0 0.00 0.00 0.00 74 1007.0
20260506150020 44 315 3.5 0.0 0.00 0.00 0.00 71 1007.0
20260506144514 44 234 3.5 0.0 0.00 0.00 0.00 71 1006.9
20260506143013 45 277 4.3 0.0 0.00 0.00 0.00 70 1006.8
20260506141513 47 244 3.5 0.0 0.00 0.00 0.00 65 1006.8
20260506140012 48 190 3.5 0.0 0.00 0.00 0.00 63 1006.8
20260506134525 46 248 2.6 0.0 0.00 0.00 0.00 72 1006.9
20260506133012 45 229 5.2 0.0 0.00 0.00 0.00 74 1006.8
20260506131509 46 257 5.2 0.0 0.00 0.00 0.00 68 1006.7
20260506130007 48 246 4.3 0.0 0.00 0.00 0.00 64 1006.5
20260506124511 48 231 3.5 0.0 0.00 0.00 0.00 61 1006.5
20260506123003 49 235 2.6 0.0 0.00 0.00 0.00 59 1006.3
20260506121507 48 206 1.7 0.0 0.00 0.00 0.00 57 1006.3
20260506114556 47 240 2.6 0.0 0.00 0.00 0.00 60 1006.2
20260506113053 47 269 2.6 0.0 0.00 0.00 0.00 61 1006.1
20260506111609 47 263 1.7 0.0 0.00 0.00 0.00 61 1006.0
20260506110051 46 212 1.7 0.0 0.00 0.00 0.00 63 1006.1
20260506104547 45 227 2.6 0.0 0.00 0.00 0.00 62 1005.9
20260506103044 46 228 1.7 0.0 0.00 0.00 0.00 63 1006.1
20260506101542 47 251 2.6 0.0 0.00 0.00 0.00 61 1005.9
20260506100038 45 193 1.7 0.0 0.00 0.00 0.00 67 1005.8
20260506094536 45 264 0.9 0.0 0.00 0.00 0.00 65 1005.7
20260506093034 43 254 1.7 0.0 0.00 0.00 0.00 67 1005.7
20260506091533 43 262 1.7 0.0 0.00 0.00 0.00 69 1005.5
20260506090031 41 285 0.0 0.0 0.00 0.00 0.00 71 1005.5
20260506084530 41 285 0.9 0.0 0.00 0.00 0.00 69 1005.2
20260506083027 43 264 0.0 0.0 0.00 0.00 0.00 64 1005.4
20260506081531 45 202 0.0 0.0 0.00 0.00 0.00 63 1005.3
20260506073019 44 185 0.0 0.0 0.00 0.00 0.00 67 1005.0
20260506071515 42 159 0.0 0.0 0.00 0.00 0.00 70 1004.7
20260506061510 41 131 1.7 0.0 0.00 0.00 0.00 73 1004.4
20260506050108 39 105 3.5 0.0 0.00 0.00 0.00 75 1003.8
20260506044558 39 131 0.0 0.0 0.00 0.00 0.00 76 1003.6
20260506043057 39 135 0.0 0.0 0.00 0.00 0.00 78 1003.6
20260506041602 38 134 0.9 0.0 0.00 0.00 0.00 78 1003.6
20260506040052 38 68 1.7 0.0 0.00 0.00 0.00 78 1003.4
20260506034558 38 72 0.9 0.0 0.00 0.00 0.00 78 1003.2
20260506033051 38 51 0.0 0.0 0.00 0.00 0.00 79 1003.2
20260506031549 37 50 0.0 0.0 0.00 0.00 0.00 80 1003.2
20260506030048 37 46 0.0 0.0 0.00 0.00 0.00 80 1002.9
20260506024557 37 46 0.0 0.0 0.00 0.00 0.00 80 1002.8
20260506023045 37 46 0.0 0.0 0.00 0.00 0.00 80 1002.6
20260506021544 37 46 0.0 0.0 0.00 0.00 0.00 81 1002.6
20260506020048 37 44 0.0 0.0 0.00 0.00 0.00 81 1002.5
20260506014541 37 44 0.0 0.0 0.00 0.00 0.00 81 1002.5
20260506013039 37 44 0.0 0.0 0.00 0.00 0.00 80 1002.2
20260506011600 37 44 0.0 0.0 0.00 0.00 0.00 79 1002.3
20260506010035 38 44 0.0 0.0 0.00 0.00 0.00 79 1002.1
20260506004542 38 44 0.9 0.0 0.00 0.00 0.00 79 1001.9
20260506003031 38 41 0.9 0.0 0.00 0.00 0.00 81 1001.7
20260506001529 38 42 1.7 0.0 0.00 0.00 0.00 81 1001.8
20260506000045 38 44 1.7 0.0 0.00 0.00 0.00 81 1001.7
20260505234539 38 53 1.7 0.0 0.00 0.00 0.00 81 1001.6
20260505233027 38 61 2.6 0.0 0.00 0.00 0.00 81 1001.6
20260505231522 38 61 1.7 0.0 0.00 0.00 0.00 80 1001.4
20260505230044 39 48 1.7 0.0 0.00 0.00 0.00 80 1001.4
20260505224533 39 63 1.7 0.0 0.00 0.00 0.00 79 1001.3
20260505223022 39 67 1.7 0.0 0.00 0.00 0.00 79 1001.3
20260505221514 39 53 1.7 0.0 0.00 0.00 0.00 78 1001.2
20260505220011 39 53 0.9 0.0 0.00 0.00 0.38 78 1001.2
20260505214514 39 53 0.9 0.0 0.00 0.00 0.38 77 1001.2
20260505213009 40 53 1.7 0.0 0.00 0.00 0.38 76 1001.0
20260505211516 40 49 1.7 0.0 0.00 0.00 0.38 76 1001.1
20260505210007 40 38 0.9 0.0 0.00 0.00 0.38 76 1000.9
20260505204506 40 37 0.9 0.0 0.00 0.00 0.38 76 1000.8
20260505203009 40 37 0.0 0.0 0.00 0.00 0.38 75 1000.6
20260505201505 41 36 0.9 0.0 0.00 0.00 0.38 75 1000.7
20260505200004 41 36 1.7 0.0 0.00 0.00 0.38 74 1000.6
20260505194504 41 30 0.9 0.0 0.00 0.00 0.38 72 1000.5
20260505193003 42 31 1.7 0.0 0.00 0.00 0.38 69 1000.4
20260505191503 42 227 0.0 0.0 0.00 0.00 0.38 67 1000.5
20260505190001 42 227 0.0 0.0 0.00 0.00 0.38 65 1000.5
20260505184505 42 227 0.0 0.0 0.00 0.00 0.38 64 1000.3
20260505183100 43 227 0.0 0.0 0.00 0.00 0.38 64 1000.3
20260505181558 43 227 0.0 0.0 0.00 0.00 0.38 63 1000.1
20260505174558 44 227 0.9 0.0 0.00 0.00 0.38 61 1000.0
20260505173113 45 228 1.7 0.0 0.00 0.00 0.38 57 1000.0
20260505171623 44 223 0.9 0.0 0.00 0.00 0.38 59 1000.0